TimeEDT,TemperatureF,Dew PointF,Humidity,Sea Level PressureIn,VisibilityMPH,Wind Direction,Wind SpeedMPH,Gust SpeedMPH,PrecipitationIn,Events,Conditions,WindDirDegrees,DateUTC
12:39 AM,69.8,68.0,94,29.80,1.2,North,3.5,-,N/A,,Scattered Clouds,10,2013-07-11 04:39:00
12:44 AM,69.8,68.0,94,29.80,3.0,Variable,3.5,-,N/A,,Partly Cloudy,0,2013-07-11 04:44:00
12:54 AM,69.1,68.0,96,29.78,3.0,Calm,Calm,-,N/A,,Partly Cloudy,0,2013-07-11 04:54:00
1:12 AM,69.8,68.0,94,29.79,1.8,Calm,Calm,-,N/A,,Clear,0,2013-07-11 05:12:00
1:28 AM,68.0,66.2,94,29.79,2.0,Calm,Calm,-,N/A,,Partly Cloudy,0,2013-07-11 05:28:00
1:38 AM,68.0,66.2,94,29.79,3.0,Calm,Calm,-,N/A,,Partly Cloudy,0,2013-07-11 05:38:00
1:54 AM,69.1,66.9,93,29.78,2.5,Calm,Calm,-,N/A,,Clear,0,2013-07-11 05:54:00
2:07 AM,68.0,66.2,94,29.80,1.2,Calm,Calm,-,N/A,,Clear,0,2013-07-11 06:07:00
2:23 AM,69.8,66.2,88,29.80,3.0,Calm,Calm,-,N/A,,Clear,0,2013-07-11 06:23:00
2:54 AM,69.1,68.0,96,29.78,4.0,Calm,Calm,-,N/A,,Clear,0,2013-07-11 06:54:00
3:13 AM,69.8,68.0,94,29.80,2.5,Calm,Calm,-,N/A,,Partly Cloudy,0,2013-07-11 07:13:00
3:27 AM,69.8,66.2,88,29.80,4.0,Calm,Calm,-,N/A,,Partly Cloudy,0,2013-07-11 07:27:00
3:54 AM,70.0,68.0,93,29.80,5.0,SW,4.6,-,N/A,,Clear,220,2013-07-11 07:54:00
4:54 AM,72.0,68.0,87,29.81,8.0,SW,3.5,-,N/A,,Clear,220,2013-07-11 08:54:00
5:54 AM,73.0,66.9,81,29.83,10.0,Variable,3.5,-,N/A,,Partly Cloudy,0,2013-07-11 09:54:00
6:54 AM,72.0,66.9,84,29.84,10.0,South,3.5,-,N/A,,Scattered Clouds,190,2013-07-11 10:54:00
7:52 AM,71.6,66.2,83,29.87,10.0,Calm,Calm,-,0.00,Rain,Light Rain,0,2013-07-11 11:52:00
7:54 AM,71.1,66.9,87,29.86,10.0,Calm,Calm,-,0.00,Rain,Light Rain,0,2013-07-11 11:54:00
8:32 AM,71.6,66.2,83,29.87,10.0,WSW,4.6,-,0.00,,Scattered Clouds,240,2013-07-11 12:32:00
8:54 AM,72.0,66.0,81,29.86,10.0,WSW,6.9,-,0.00,,Partly Cloudy,250,2013-07-11 12:54:00
9:28 AM,71.6,64.4,78,29.87,10.0,WNW,5.8,-,N/A,,Mostly Cloudy,290,2013-07-11 13:28:00
9:54 AM,73.0,66.0,79,29.87,10.0,Variable,3.5,-,N/A,,Mostly Cloudy,0,2013-07-11 13:54:00
10:42 AM,73.4,64.4,73,29.89,10.0,Variable,5.8,-,N/A,,Mostly Cloudy,0,2013-07-11 14:42:00
10:54 AM,73.0,64.0,73,29.88,10.0,West,8.1,-,N/A,,Partly Cloudy,260,2013-07-11 14:54:00
11:54 AM,75.9,64.9,69,29.88,10.0,Calm,Calm,-,N/A,,Mostly Cloudy,0,2013-07-11 15:54:00
12:54 PM,75.9,63.0,64,29.88,10.0,West,5.8,-,N/A,,Mostly Cloudy,270,2013-07-11 16:54:00
1:54 PM,77.0,63.0,62,29.88,10.0,West,5.8,-,N/A,,Scattered Clouds,270,2013-07-11 17:54:00
2:54 PM,77.0,61.0,58,29.88,10.0,Variable,4.6,-,N/A,,Mostly Cloudy,0,2013-07-11 18:54:00
3:54 PM,79.0,63.0,58,29.88,10.0,Variable,5.8,-,N/A,,Clear,0,2013-07-11 19:54:00
4:54 PM,80.1,61.0,52,29.88,10.0,Calm,Calm,-,N/A,,Clear,0,2013-07-11 20:54:00
5:54 PM,79.0,60.1,52,29.88,10.0,Calm,Calm,-,N/A,,Clear,0,2013-07-11 21:54:00
6:54 PM,77.0,62.1,60,29.90,10.0,West,3.5,-,N/A,,Clear,260,2013-07-11 22:54:00
7:54 PM,73.9,63.0,68,29.92,10.0,NNW,5.8,-,N/A,,Scattered Clouds,330,2013-07-11 23:54:00
8:54 PM,69.1,63.0,81,29.95,9.0,Calm,Calm,-,N/A,,Mostly Cloudy,0,2013-07-12 00:54:00
9:54 PM,68.0,60.1,76,29.97,10.0,Calm,Calm,-,0.00,,Partly Cloudy,0,2013-07-12 01:54:00
10:54 PM,66.9,57.9,73,29.98,10.0,Calm,Calm,-,N/A,,Scattered Clouds,0,2013-07-12 02:54:00
11:54 PM,68.0,57.0,68,29.99,10.0,Calm,Calm,-,N/A,,Overcast,0,2013-07-12 03:54:00